Junction City, KY

1:47 AM EST on February 07, 2016 (GMT -0500)
Powell

Weather History for KDVK - February, 2013

Change the Weather History Date:

Wednesday, February 27, 2013

  Actual Average (KLEX) Record (KLEX)
Temperature  
Mean Temperature 34 °F 40 °F  
Max Temperature 37 °F 49 °F 73 °F (1996)
Min Temperature 32 °F 31 °F -3 °F (1934)
Degree Days  
Heating Degree Days 30 25  
Month to date heating degree days 763  
Since 1 July heating degree days 3546  
Cooling Degree Days 0 0  
Month to date cooling degree days 0  
Year to date cooling degree days 0  
Moisture  
Dew Point 33 °F    
Average Humidity 92    
Maximum Humidity 100    
Minimum Humidity 81    
Precipitation  
Precipitation 0.00 in 0.12 in 2.90 in (1962)
Month to date precipitation 3.09  
Year to date precipitation 6.29  
Snow  
Snow 0.00 in 0.10 in 7.00 in (1906)
Month to date snowfall 4.5  
Since 1 July snowfall 11.2  
Snow Depth -    
Sea Level Pressure  
Sea Level Pressure 29.74 in    
Wind  
Wind Speed 12 mph (WSW)    
Max Wind Speed 21 mph    
Max Gust Speed 28 mph    
Visibility 8 miles    
Events Rain , Snow    
T = Trace of Precipitation, MM = Missing Value Source: NWS Daily Summary

Daily Weather History Graph

Daily Weather History Graph

Search for Another Location

Airport or City:

Trip Planner

Search our weather history database for the weather conditions in past years. The results will help you decide how hot, cold, wet, or windy it might be!

Date:

Astronomy

Feb. 27, 2013 Rise Set
Actual Time 7:12 AM EST 6:31 PM EST
Civil Twilight 6:46 AM EST 6:57 PM EST
Nautical Twilight 6:16 AM EST 7:27 PM EST
Astronomical Twilight 5:45 AM EST 7:58 PM EST
Moon 8:47 PM EST (2/27) 7:51 AM EST (2/27)
Length of Visible Light 12h 10m
Length of Day
11h 18m
Waning Gibbous, 96% of the Moon is Illuminated
Feb 27
Waning Gibbous
Mar 4
Last Quarter
Mar 11
New
Mar 19
First Quarter
Mar 27
Full

Hourly Weather History & Observations

Time (EST) Temp. Windchill Dew Point Humidity Pressure Visibility Wind Dir Wind Speed Gust Speed Precip Events Conditions
12:15 AM 37.4 °F 29.8 °F 35.6 °F 93% 29.62 in 10.0 mi SW 11.5 mph - N/A Rain Rain
12:35 AM 37.4 °F 29.8 °F 35.6 °F 93% 29.63 in 10.0 mi WSW 11.5 mph 17.3 mph N/A Rain Rain
12:55 AM 37.4 °F 29.8 °F 35.6 °F 93% 29.63 in 10.0 mi WSW 11.5 mph 18.4 mph N/A Rain Light Rain
1:15 AM 37.4 °F 30.3 °F 35.6 °F 93% 29.64 in 7.0 mi SW 10.4 mph - N/A Rain Light Rain
1:35 AM 37.4 °F 30.3 °F 35.6 °F 93% 29.64 in 10.0 mi SW 10.4 mph 20.7 mph N/A   Drizzle
1:55 AM 37.4 °F 29.3 °F 35.6 °F 93% 29.65 in 7.0 mi WSW 12.7 mph 18.4 mph N/A   Light Drizzle
2:35 AM 37.4 °F 29.8 °F 33.8 °F 87% 29.65 in 10.0 mi WSW 11.5 mph 18.4 mph N/A   Overcast
2:55 AM 37.4 °F 29.8 °F 33.8 °F 87% 29.65 in 10.0 mi WSW 11.5 mph 19.6 mph N/A   Overcast
3:15 AM 37.4 °F 30.3 °F 33.8 °F 87% 29.65 in 10.0 mi WSW 10.4 mph 21.9 mph N/A   Overcast
3:35 AM 37.4 °F 32.1 °F 33.8 °F 87% 29.66 in 10.0 mi WSW 6.9 mph 16.1 mph N/A   Overcast
3:55 AM 37.4 °F 27.8 °F 33.8 °F 87% 29.66 in 10.0 mi WSW 17.3 mph 21.9 mph N/A   Overcast
4:15 AM 37.4 °F 29.3 °F 33.8 °F 87% 29.67 in 10.0 mi WSW 12.7 mph 19.6 mph N/A   Overcast
4:35 AM 37.4 °F 29.8 °F 33.8 °F 87% 29.67 in 10.0 mi WSW 11.5 mph 23.0 mph N/A   Overcast
4:55 AM 37.4 °F 28.9 °F 32.0 °F 81% 29.68 in 10.0 mi WSW 13.8 mph 21.9 mph N/A   Overcast
5:15 AM 37.4 °F 29.3 °F 33.8 °F 87% 29.68 in 10.0 mi WSW 12.7 mph 20.7 mph N/A   Overcast
5:35 AM 35.6 °F 25.9 °F 33.8 °F 93% 29.69 in 10.0 mi WSW 16.1 mph 25.3 mph N/A   Overcast
5:55 AM 35.6 °F 27.1 °F 33.8 °F 93% 29.70 in 10.0 mi WSW 12.7 mph 20.7 mph N/A   Overcast
6:15 AM 35.6 °F 24.5 °F 33.8 °F 93% 29.70 in 10.0 mi WSW 20.7 mph 27.6 mph N/A   Overcast
6:35 AM 35.6 °F 26.6 °F 33.8 °F 93% 29.71 in 10.0 mi WSW 13.8 mph 20.7 mph N/A   Overcast
6:55 AM 35.6 °F 26.2 °F 32.0 °F 87% 29.72 in 10.0 mi WSW 15.0 mph 23.0 mph N/A   Overcast
7:15 AM 35.6 °F 26.2 °F 32.0 °F 87% 29.72 in 10.0 mi WSW 15.0 mph 19.6 mph N/A   Overcast
7:35 AM 35.6 °F 27.1 °F 32.0 °F 87% 29.73 in 10.0 mi WSW 12.7 mph 24.2 mph N/A   Overcast
7:55 AM 35.6 °F 27.1 °F 32.0 °F 87% 29.73 in 10.0 mi WSW 12.7 mph 18.4 mph N/A   Overcast
8:15 AM 35.6 °F 26.2 °F 32.0 °F 87% 29.75 in 10.0 mi WSW 15.0 mph 24.2 mph N/A   Overcast
8:35 AM 35.6 °F 27.1 °F 32.0 °F 87% 29.75 in 10.0 mi WSW 12.7 mph 19.6 mph N/A   Overcast
8:55 AM 35.6 °F 27.5 °F 33.8 °F 93% 29.76 in 7.0 mi WSW 11.5 mph 16.1 mph N/A   Overcast
9:15 AM 35.6 °F 27.5 °F 33.8 °F 93% 29.76 in 10.0 mi WSW 11.5 mph 23.0 mph N/A   Overcast
9:35 AM 35.6 °F 26.2 °F 33.8 °F 93% 29.77 in 5.0 mi WSW 15.0 mph 19.6 mph N/A   Overcast
9:55 AM 35.6 °F 27.1 °F 33.8 °F 93% 29.77 in 5.0 mi SW 12.7 mph 19.6 mph N/A   Light Drizzle
10:15 AM 35.6 °F 28.0 °F 33.8 °F 93% 29.77 in 7.0 mi SW 10.4 mph - N/A   Overcast
10:35 AM 35.6 °F 28.0 °F 33.8 °F 93% 29.78 in 4.0 mi SW 10.4 mph - N/A   Heavy Drizzle
10:55 AM 35.6 °F 28.6 °F 33.8 °F 93% 29.77 in 2.5 mi WSW 9.2 mph - N/A Rain Light Rain
11:15 AM 35.6 °F 27.5 °F 33.8 °F 93% 29.77 in 3.0 mi WSW 11.5 mph 16.1 mph N/A Rain Heavy Rain
11:35 AM 37.4 °F 29.3 °F 33.8 °F 87% 29.77 in 10.0 mi WSW 12.7 mph 16.1 mph N/A   Overcast
12:35 PM 35.6 °F 26.6 °F 33.8 °F 93% 29.77 in 4.0 mi WSW 13.8 mph 20.7 mph N/A Rain Rain
1:55 PM 37.4 °F 30.3 °F 33.8 °F 87% 29.75 in 10.0 mi West 10.4 mph - N/A   Overcast
2:35 PM 35.6 °F 28.0 °F 32.0 °F 87% 29.75 in 10.0 mi West 10.4 mph - N/A   Overcast
2:55 PM 35.6 °F 26.6 °F 32.0 °F 87% 29.76 in 5.0 mi WSW 13.8 mph 17.3 mph N/A   Heavy Drizzle
5:35 PM 33.8 °F 24.8 °F 32.0 °F 93% 29.79 in 4.0 mi West 12.7 mph 16.1 mph N/A Snow Light Snow
5:55 PM 33.8 °F 25.3 °F 32.0 °F 93% 29.79 in 4.0 mi WSW 11.5 mph - N/A Snow Light Snow
6:15 PM 33.8 °F 25.8 °F 32.0 °F 93% 29.80 in 7.0 mi WSW 10.4 mph 17.3 mph N/A Snow Light Snow
6:35 PM 33.8 °F 26.4 °F 32.0 °F 93% 29.81 in 3.0 mi West 9.2 mph - N/A Snow Light Snow
6:55 PM 33.8 °F 27.0 °F 32.0 °F 93% 29.81 in 4.0 mi WSW 8.1 mph - N/A Snow Light Snow
7:15 PM 32.0 °F 24.2 °F 32.0 °F 100% 29.81 in 4.0 mi WSW 9.2 mph - N/A Snow Light Snow
7:35 PM 32.0 °F 24.8 °F 32.0 °F 100% 29.82 in 4.0 mi WSW 8.1 mph 16.1 mph N/A Snow Light Snow
7:55 PM 32.0 °F 23.0 °F 32.0 °F 100% 29.82 in 5.0 mi WSW 11.5 mph - N/A Snow Light Snow
8:15 PM 32.0 °F 23.6 °F 32.0 °F 100% 29.82 in 7.0 mi WSW 10.4 mph 17.3 mph N/A Snow Light Snow
8:35 PM 32.0 °F 24.2 °F 32.0 °F 100% 29.82 in 10.0 mi WSW 9.2 mph 17.3 mph N/A   Overcast
8:55 PM 33.8 °F 26.4 °F 32.0 °F 93% 29.82 in 10.0 mi WSW 9.2 mph 17.3 mph N/A   Overcast
9:15 PM 33.8 °F 25.3 °F 32.0 °F 93% 29.81 in 10.0 mi WSW 11.5 mph 17.3 mph N/A Snow Light Snow
9:35 PM 32.0 °F 25.6 °F 32.0 °F 100% 29.81 in 10.0 mi WSW 6.9 mph - N/A   Overcast
9:55 PM 33.8 °F 27.0 °F 32.0 °F 93% 29.80 in 7.0 mi WSW 8.1 mph 16.1 mph N/A Snow Light Snow
10:15 PM 32.0 °F 21.6 °F 32.0 °F 100% 29.80 in 5.0 mi WSW 15.0 mph 20.7 mph N/A Snow Light Snow
10:35 PM 33.8 °F 25.8 °F 32.0 °F 93% 29.80 in 5.0 mi WSW 10.4 mph 18.4 mph N/A Snow Light Snow
10:55 PM 32.0 °F 22.5 °F 32.0 °F 100% 29.80 in 5.0 mi West 12.7 mph 16.1 mph N/A Snow Light Snow
11:15 PM 33.8 °F 25.8 °F 32.0 °F 93% 29.80 in 10.0 mi West 10.4 mph - N/A   Overcast
11:55 PM 33.8 °F 24.8 °F 30.2 °F 87% 29.80 in 10.0 mi West 12.7 mph 19.6 mph N/A Snow Light Snow